Temperature
16 16 16 16 15 15 15 15 15 15 16 15 15 15 15 15 15 15 15 15 15 15 15 15 14 14 14 14 14 14 14 14 14 14 15 14 14 14 14 14 14 14 14
17 16 16 16 15 15 15 15 15 15 15 15 15 15 15 15 15 15 15 15 15 15 15 15 14 14 14 14 14 14 14 14 14 14 15 15 14 14 14 14 14 14 14
17 16 16 16 15 15 15 15 15 15 15 15 15 15 15 15 15 15 15 15 15 15 15 14 14 14 14 14 14 14 14 14 14 14 14 14 14 14 14 14 13 13 13
16 16 16 16 15 15 15 15 15 15 15 15 15 15 15 15 15 15 14 14 14 15 14 14 14 14 14 14 14 14 14 14 14 14 14 14 14 14 13 13 13 13 13
16 16 16 15 15 15 15 15 15 15 15 15 15 15 15 15 15 14 14 14 14 14 14 14 14 14 14 14 14 14 14 14 14 14 14 14 13 13 13 13 13 13 13
16 15 15 15 15 15 15 15 15 15 15 15 15 15 15 15 15 14 14 14 14 14 14 14 14 14 14 14 14 14 13 13 13 13 13 13 13 13 13 13 13 13 13
15 15 15 15 15 15 15 14 14 14 14 14 14 14 14 14 14 14 14 14 14 14 14 14 14 14 14 14 13 13 13 13 13 13 13 13 13 13 12 13 13 13 12
15 15 15 15 15 15 14 14 14 14 14 14 14 14 14 14 14 14 14 14 14 14 14 14 14 14 14 13 13 13 13 13 13 13 13 13 13 12 12 12 12 12 12
14 14 14 14 14 14 14 14 14 14 14 14 14 14 14 14 14 14 14 14 14 14 14 13 13 13 13 13 13 13 13 13 13 13 13 12 12 12 12 12 12 12 12
14 14 14 14 14 14 14 14 14 14 14 14 14 14 14 14 14 14 14 14 14 13 13 13 13 13 13 13 13 13 13 13 13 13 12 12 12 12 12 12 12 12 12
13 14 14 14 14 13 13 13 13 13 13 13 13 13 13 13 13 13 14 13 13 13 13 13 13 13 13 13 13 13 13 13 12 12 12 12 12 12 11 11 11 11 11
13 13 13 13 13 13 13 13 13 13 13 13 13 13 13 13 13 13 13 13 13 13 13 13 13 13 13 13 13 12 12 12 12 12 12 12 12 11 11 11 11 11 11
13 13 13 13 13 13 13 13 13 13 13 13 13 13 13 13 13 13 13 13 13 13 13 13 13 13 12 12 12 12 12 12 12 12 12 12 11 11 11 11 11 11 11
12 12 12 13 12 13 13 13 13 13 13 13 12 12 12 12 13 13 13 13 13 13 13 13 12 12 12 12 12 12 12 12 12 12 12 11 11 11 11 11 11 11 11
12 12 12 12 12 12 12 12 12 12 12 12 12 12 12 12 12 12 12 12 12 12 12 12 12 12 12 12 12 12 11 11 11 11 11 11 11 11 11 11 11 10 10
12 12 12 12 12 12 12 12 12 12 12 12 12 12 12 12 12 12 12 12 12 12 12 12 12 12 11 11 11 11 11 11 11 11 11 11 11 11 11 10 10 10 10
11 12 12 12 11 12 12 12 12 12 12 12 12 12 12 11 12 12 12 12 12 11 11 11 11 11 11 11 11 11 11 11 11 11 11 11 11 11 10 10 10 10 10
11 11 11 11 11 11 11 11 12 12 12 12 12 11 11 11 11 11 11 11 11 11 11 11 11 11 11 11 11 10 10 10 11 11 10 10 10 10 10 10 10 10 10
10 11 11 11 11 11 11 11 11 11 11 11 11 11 11 11 11 11 11 11 11 11 11 10 10 10 10 10 10 10 10 10 10 10 10 10 10 10 10 10 10 10 10
10 10 10 10 10 10 10 10 10 10 11 11 11 11 11 11 11 10 10 10 10 10 10 10 10 10 10 10 10 9 10 10 10 10 10 10 10 10 10 10 9 9 9
9 9 9 10 9 9 9 10 10 10 10 10 10 10 10 10 10 10 10 10 10 10 10 10 10 10 9 9 9 9 9 9 9 9 9 9 10 10 9 9 9 9 9
9 9 9 9 9 9 9 9 9 9 9 10 10 10 10 10 10 10 10 10 10 9 9 9 9 9 9 9 9 8 8 9 9 9 9 9 9 9 9 9 9 9 9
8 8 8 8 9 9 8 8 8 8 8 9 9 9 9 9 9 9 9 9 9 9 9 9 9 9 9 9 8 8 8 8 9 9 9 9 9 9 9 9 9 9 9
8 8 8 8 8 8 8 8 8 8 8 8 8 9 9 9 9 9 9 9 9 9 9 9 9 9 9 8 8 8 8 8 8 9 9 9 9 9 9 9 9 9 8
7 7 7 7 7 7 7 7 7 7 7 8 8 8 8 8 8 8 8 8 8 8 9 8 8 8 8 8 8 8 8 8 8 8 8 9 9 9 9 9 8 8 8
6 7 7 7 7 7 7 7 7 7 7 7 7 7 8 8 8 8 8 8 8 8 8 8 8 8 8 8 8 8 8 8 8 8 7 8 8 8 8 8 8 8 8
Wind_Speed
4 6 10 10 11 11 12 12 12 13 13 13 14 14 14 14 13 13 14 14 14 13 14 14 14 14 14 14 14 14 14 14 15 15 15 14 14 14 15 15 14 14 15
6 9 12 11 11 12 12 12 12 12 12 13 13 13 13 13 13 13 13 13 13 13 14 14 14 14 13 13 13 14 14 14 14 14 14 14 14 14 14 14 14 13 14
7 9 11 12 11 12 12 12 12 12 12 13 13 13 13 13 13 13 13 13 12 13 13 13 13 13 13 13 13 13 13 13 13 13 12 11 12 13 13 13 13 14 14
7 8 10 12 11 12 12 12 12 12 12 12 12 12 13 13 12 12 12 12 12 12 12 12 12 12 12 13 13 12 12 12 13 12 11 10 10 11 12 12 12 12 12
6 7 9 12 11 12 12 12 12 12 12 12 12 12 12 12 12 12 12 12 12 12 12 12 12 12 12 12 12 12 12 12 12 11 10 10 9 10 10 11 11 11 11
4 6 8 11 11 11 11 11 12 12 12 12 12 12 12 12 12 12 12 12 11 11 12 11 11 11 11 11 11 11 11 11 11 10 9 9 8 9 9 9 10 10 9
4 5 7 10 10 10 10 10 11 11 12 12 12 12 12 12 12 12 12 12 11 11 11 11 10 10 10 10 10 11 11 10 9 8 7 7 7 8 8 8 9 9 9
4 5 6 9 9 9 9 9 9 10 11 11 11 12 12 12 12 12 12 12 11 11 11 10 10 10 10 10 10 10 10 9 8 7 5 5 6 6 7 7 7 7 7
4 4 4 6 8 9 9 9 8 9 10 11 11 11 11 11 12 11 12 11 11 10 10 10 10 10 10 10 10 9 9 8 7 6 4 4 5 6 6 6 6 6 6
3 2 3 5 6 6 7 8 8 8 9 10 11 11 11 11 11 11 11 11 10 10 9 9 9 9 9 9 9 9 8 7 6 5 4 3 4 5 5 5 5 5 5
2 1 1 2 4 5 6 7 7 7 8 9 9 10 10 9 9 10 10 10 10 10 9 9 9 9 9 8 8 8 7 6 5 4 3 3 3 4 4 4 4 3 3
2 1 1 1 2 4 5 5 5 5 5 6 7 8 8 8 8 8 9 9 10 9 9 8 8 8 8 6 6 6 5 5 4 3 2 2 2 3 3 3 3 3 2
3 2 1 1 1 3 3 3 3 3 4 5 6 7 7 7 7 6 6 6 7 7 7 6 6 6 6 5 5 4 4 4 3 2 1 0 1 2 2 2 2 2 2
2 2 2 1 2 2 3 3 3 3 3 3 5 7 7 5 5 5 4 4 5 5 5 5 5 5 5 5 5 4 3 3 2 1 1 1 0 1 1 2 2 2 2
2 3 2 2 3 2 2 2 3 4 4 4 5 7 7 6 5 5 4 5 4 5 5 5 5 5 4 4 3 3 3 2 2 1 1 1 1 1 1 2 2 1 1
3 3 3 2 2 2 2 2 2 3 4 5 5 6 7 7 6 5 5 4 4 5 6 5 5 4 4 3 2 2 2 2 2 2 1 1 1 2 2 2 1 1 1
3 2 2 2 2 2 1 2 2 3 3 4 4 6 6 7 7 6 5 4 5 6 6 5 4 4 3 2 2 2 2 2 2 2 2 2 2 2 2 2 2 2 2
2 2 2 1 2 2 2 2 2 3 3 3 3 5 6 7 8 6 5 4 5 6 5 4 4 3 2 2 2 1 1 2 2 3 3 2 2 2 2 2 2 2 2
1 1 1 1 2 2 1 2 2 2 2 3 3 4 5 6 7 7 5 5 6 5 4 4 3 3 3 2 2 1 1 1 2 2 2 3 3 3 3 3 2 2 2
0 0 1 1 1 1 1 1 1 1 1 2 3 4 5 5 6 6 6 6 6 4 4 4 4 3 3 3 1 0 1 2 1 2 3 3 3 4 3 3 2 2 3
2 2 0 1 1 1 1 1 1 2 2 2 3 4 4 4 6 6 5 5 6 5 5 5 3 3 2 2 1 1 2 1 2 2 2 2 3 3 3 3 3 2 3
2 2 1 1 1 2 2 2 2 2 2 3 2 3 5 5 6 6 6 5 6 5 5 6 4 3 2 3 2 1 1 2 2 3 2 3 3 3 3 4 4 4 4
2 2 2 2 2 2 2 1 0 0 0 1 2 2 3 5 5 5 6 6 6 6 6 6 6 6 4 3 3 3 3 4 2 2 3 3 3 3 3 4 5 6 6
3 3 2 2 2 2 2 2 2 2 3 3 3 3 3 4 4 5 5 6 6 5 6 7 6 5 5 4 3 2 2 2 2 2 2 2 3 4 4 4 5 6 7
3 2 2 2 2 2 2 3 3 3 3 2 2 3 3 3 4 4 5 5 5 5 5 5 6 6 5 5 4 3 2 2 2 3 4 3 2 4 4 5 5 6 7
3 2 2 2 3 2 2 2 3 3 3 2 3 3 3 2 2 4 5 5 5 5 5 6 6 7 6 6 5 4 4 4 4 4 4 4 4 3 3 4 5 6 7
Wind_Direction
182 176 166 153 147 144 139 136 133 134 133 131 129 128 127 124 120 116 114 113 109 105 103 103 101 101 99 95 92 89 86 84 84 83 82 82 81 82 81 79 76 77 79
165 171 164 153 150 148 144 139 135 133 136 135 133 132 131 129 125 121 118 115 112 109 106 102 100 100 100 97 94 92 89 86 84 82 79 79 80 82 82 81 79 78 80
151 161 161 152 151 149 145 140 137 136 135 136 136 135 133 132 130 127 124 119 117 112 109 105 103 101 98 97 95 92 90 89 86 82 75 73 79 82 82 80 79 77 77
150 153 156 154 153 150 146 144 141 141 138 136 137 137 136 134 133 131 129 124 121 118 114 110 108 104 101 98 95 94 92 91 88 81 70 69 76 82 81 80 79 78 76
140 146 155 154 154 151 149 148 147 145 143 142 140 140 139 138 136 132 132 130 127 123 120 117 113 109 105 102 99 95 94 93 90 80 72 70 76 82 80 79 79 77 75
132 142 155 155 156 153 150 152 153 150 149 148 144 143 140 140 139 136 135 132 130 128 126 122 118 115 111 107 103 100 96 95 89 81 76 74 80 85 85 84 81 78 76
131 140 153 157 157 155 153 153 158 157 156 152 149 146 145 141 140 138 137 135 133 133 131 127 124 123 120 113 107 104 102 99 90 84 78 78 87 92 91 88 84 80 76
127 136 146 157 156 154 154 153 158 162 161 157 154 151 146 145 142 143 142 140 138 139 137 132 129 125 123 117 112 108 106 101 92 86 84 85 102 100 95 87 83 80 76
111 125 136 151 158 155 152 153 154 163 165 162 159 156 151 147 147 148 149 147 145 145 142 137 132 126 124 119 114 112 109 100 93 85 84 91 111 108 101 96 89 83 79
103 113 138 146 151 150 154 154 154 160 166 166 162 159 155 151 149 151 152 152 151 148 146 143 137 129 124 120 114 113 108 98 94 85 79 96 119 120 113 104 98 91 83
128 115 118 152 155 153 153 158 158 162 163 167 166 159 152 147 147 149 151 153 153 150 149 146 141 130 121 119 116 114 105 97 98 88 84 94 121 133 126 117 113 105 89
189 198 136 128 170 155 157 154 155 160 157 157 157 156 150 144 146 147 152 157 158 154 152 148 143 128 114 109 111 109 101 101 97 92 95 90 112 139 141 136 128 117 95
193 201 195 159 179 170 160 153 145 144 144 151 153 152 146 141 142 141 145 155 158 155 147 144 135 122 117 115 109 108 109 106 100 95 116 102 114 113 146 160 158 144 119
200 212 219 203 179 187 173 164 158 156 158 159 162 158 151 149 151 151 151 151 151 153 144 139 132 129 126 125 122 118 118 119 117 132 190 205 147 131 123 146 152 155 157
233 231 220 215 182 173 171 174 169 180 180 176 171 171 167 164 167 164 162 159 158 157 153 148 142 140 134 128 130 131 131 141 150 167 227 254 247 221 185 134 139 134 152
233 226 212 195 171 156 171 174 172 185 190 181 182 180 178 176 172 172 169 168 168 167 164 161 159 152 151 147 147 151 153 165 180 192 211 239 258 240 217 200 192 195 184
237 219 201 195 174 168 179 183 173 179 183 191 194 191 187 185 178 176 174 177 178 170 162 154 152 145 147 152 166 165 164 177 187 198 204 216 243 255 243 230 231 239 240
253 223 215 201 187 198 201 207 188 180 184 191 199 195 193 189 182 178 180 188 181 168 164 164 165 167 176 183 196 203 182 186 198 201 202 209 217 232 245 248 250 256 265
249 222 209 185 192 217 222 221 208 189 189 195 197 201 198 192 183 180 186 189 177 168 169 179 176 174 184 194 203 220 218 209 210 207 209 214 215 223 230 243 253 259 276
325 196 191 177 183 196 201 200 205 209 216 203 201 207 199 194 188 183 184 184 177 176 181 182 182 180 185 183 182 251 274 252 225 213 219 216 215 218 218 220 228 251 270
22 19 307 196 219 165 176 203 218 226 228 225 221 209 203 200 193 184 188 183 183 192 194 186 183 184 188 151 116 345 318 275 242 234 221 210 218 217 210 212 213 226 247
347 337 339 261 239 211 210 204 206 219 221 219 226 224 213 204 203 198 191 192 193 194 192 191 177 177 181 167 150 136 279 297 267 241 225 219 222 215 222 234 231 230 232
335 311 304 279 256 240 213 186 136 86 23 245 233 229 229 218 209 204 200 196 196 196 200 197 190 184 192 197 183 167 179 226 266 261 231 226 223 221 235 237 235 237 238
304 301 296 287 282 268 215 183 186 209 224 237 239 237 240 225 217 207 200 198 198 200 201 202 198 192 184 198 208 210 198 179 194 259 272 243 231 233 236 246 243 241 240
308 311 311 323 314 293 244 213 204 226 237 246 247 243 247 238 225 213 208 201 201 206 206 205 203 199 198 201 197 189 197 209 200 208 258 271 266 244 235 236 241 237 236
316 322 335 343 319 310 280 236 221 228 239 244 251 240 245 250 243 228 217 208 206 210 209 209 208 206 208 205 205 199 190 190 199 202 230 248 260 260 249 241 233 230 229
Height
1502 1504 1506 1508 1510 1512 1513 1515 1516 1518 1519 1520 1521 1522 1523 1525 1526 1527 1528 1528 1529 1530 1531 1532 1532 1533 1534 1534 1534 1535 1535 1536 1536 1536 1536 1537 1537 1538 1538 1539 1539 1540 1540
1501 1504 1506 1508 1510 1512 1513 1515 1516 1518 1519 1520 1522 1523 1524 1525 1526 1527 1528 1529 1530 1531 1532 1532 1533 1534 1535 1535 1536 1536 1536 1537 1537 1537 1537 1538 1539 1539 1540 1540 1541 1541 1541
1501 1503 1505 1507 1509 1511 1513 1515 1516 1518 1519 1520 1522 1523 1524 1525 1526 1528 1529 1530 1531 1531 1532 1533 1534 1535 1535 1536 1537 1537 1538 1538 1538 1538 1539 1539 1540 1541 1541 1541 1542 1542 1542
1502 1503 1505 1507 1509 1511 1513 1515 1516 1518 1519 1520 1522 1523 1524 1525 1527 1528 1529 1530 1531 1532 1533 1534 1534 1535 1536 1537 1537 1538 1538 1539 1539 1539 1540 1540 1541 1542 1542 1542 1543 1543 1543
1502 1504 1505 1507 1509 1511 1513 1514 1516 1518 1519 1520 1521 1523 1524 1525 1526 1528 1529 1530 1531 1532 1533 1534 1535 1536 1537 1537 1538 1539 1539 1540 1540 1540 1541 1541 1542 1542 1543 1543 1543 1544 1544
1502 1504 1505 1507 1509 1510 1512 1514 1516 1517 1519 1520 1522 1523 1524 1525 1526 1527 1528 1530 1531 1532 1533 1534 1535 1536 1537 1538 1538 1539 1540 1540 1540 1541 1541 1542 1543 1543 1543 1544 1544 1544 1544
1502 1504 1505 1507 1509 1510 1512 1513 1515 1517 1519 1520 1521 1523 1524 1525 1526 1527 1528 1530 1531 1532 1533 1534 1535 1536 1537 1538 1539 1539 1540 1541 1541 1542 1542 1543 1543 1543 1544 1544 1544 1544 1545
1501 1503 1505 1507 1508 1510 1511 1513 1515 1516 1518 1519 1521 1522 1523 1524 1526 1527 1528 1529 1531 1532 1533 1534 1535 1536 1537 1538 1539 1539 1540 1541 1541 1542 1543 1543 1544 1544 1544 1544 1544 1545 1545
1501 1503 1504 1506 1507 1509 1511 1512 1514 1516 1517 1519 1520 1522 1523 1524 1525 1526 1528 1529 1530 1531 1533 1534 1535 1535 1537 1538 1538 1539 1540 1541 1541 1542 1543 1543 1544 1544 1544 1544 1544 1545 1545
1500 1502 1503 1505 1506 1507 1509 1511 1513 1515 1516 1518 1519 1521 1522 1523 1524 1526 1527 1528 1530 1531 1532 1533 1534 1535 1536 1537 1538 1539 1540 1541 1541 1542 1542 1543 1544 1544 1544 1544 1544 1544 1545
1499 1500 1502 1503 1505 1506 1508 1510 1511 1514 1515 1516 1518 1519 1521 1522 1523 1525 1526 1527 1529 1530 1531 1532 1534 1535 1536 1537 1538 1539 1540 1540 1541 1542 1542 1543 1543 1543 1544 1544 1544 1544 1544
1497 1499 1500 1502 1503 1504 1506 1508 1510 1512 1513 1515 1516 1518 1519 1520 1522 1523 1525 1526 1527 1529 1530 1531 1532 1533 1535 1536 1537 1538 1539 1540 1540 1541 1542 1542 1542 1543 1543 1543 1543 1544 1544
1495 1497 1498 1500 1501 1503 1504 1506 1507 1509 1511 1513 1514 1516 1517 1518 1520 1521 1523 1525 1526 1527 1528 1530 1531 1532 1534 1535 1536 1537 1538 1539 1539 1540 1541 1541 1542 1542 1542 1542 1543 1543 1543
1493 1495 1496 1498 1499 1500 1502 1503 1505 1507 1509 1510 1512 1513 1515 1516 1517 1519 1521 1523 1524 1525 1527 1528 1529 1531 1532 1533 1534 1535 1537 1537 1538 1539 1539 1540 1540 1541 1541 1541 1541 1542 1542
1491 1492 1494 1495 1496 1497 1499 1501 1502 1504 1506 1508 1509 1511 1512 1513 1515 1517 1518 1520 1522 1523 1525 1526 1527 1529 1530 1531 1532 1534 1535 1536 1536 1537 1537 1538 1539 1539 1540 1540 1540 1540 1540
1489 1490 1492 1492 1493 1495 1496 1498 1499 1501 1503 1505 1506 1508 1509 1511 1512 1514 1516 1518 1519 1521 1522 1524 1525 1526 1528 1529 1530 1531 1532 1534 1534 1535 1535 1536 1537 1537 1538 1538 1538 1538 1538
1486 1488 1489 1490 1491 1492 1494 1495 1496 1498 1500 1501 1503 1504 1506 1508 1509 1511 1513 1515 1517 1518 1520 1521 1523 1524 1525 1527 1528 1529 1530 1531 1532 1533 1533 1533 1534 1535 1535 1536 1536 1536 1536
1484 1485 1486 1487 1488 1489 1490 1492 1493 1495 1496 1498 1499 1501 1503 1505 1506 1508 1509 1511 1514 1515 1517 1518 1520 1521 1522 1524 1525 1526 1527 1528 1529 1530 1530 1531 1531 1532 1533 1533 1533 1533 1534
1481 1482 1483 1484 1485 1486 1487 1488 1490 1491 1493 1494 1496 1497 1499 1501 1503 1505 1507 1509 1511 1512 1514 1515 1517 1518 1519 1521 1522 1523 1524 1525 1526 1526 1527 1528 1528 1529 1530 1530 1530 1530 1531
1478 1479 1480 1481 1482 1483 1484 1485 1486 1487 1489 1490 1492 1494 1496 1497 1499 1501 1503 1505 1507 1509 1510 1512 1513 1515 1516 1518 1519 1520 1520 1521 1522 1523 1524 1524 1525 1526 1526 1527 1527 1527 1527
1475 1476 1477 1478 1479 1479 1480 1481 1482 1483 1484 1486 1488 1490 1492 1493 1495 1496 1498 1500 1503 1505 1506 1508 1510 1511 1513 1514 1516 1516 1517 1517 1518 1518 1520 1521 1521 1522 1523 1523 1523 1524 1524
1472 1472 1473 1474 1475 1476 1477 1477 1478 1479 1480 1482 1484 1486 1487 1489 1491 1492 1494 1496 1498 1500 1502 1504 1506 1507 1508 1510 1512 1513 1513 1514 1513 1514 1515 1516 1517 1518 1519 1519 1519 1520 1520
1469 1469 1470 1471 1472 1472 1473 1474 1475 1475 1476 1478 1479 1481 1483 1484 1486 1488 1490 1492 1493 1495 1497 1499 1501 1502 1504 1506 1508 1510 1510 1508 1509 1510 1510 1512 1513 1513 1514 1515 1515 1515 1516
1466 1467 1467 1468 1468 1469 1469 1470 1470 1471 1471 1473 1474 1476 1478 1480 1481 1483 1485 1487 1488 1490 1492 1494 1496 1498 1499 1501 1503 1504 1506 1506 1507 1505 1506 1507 1508 1508 1509 1510 1511 1511 1511
1463 1464 1464 1464 1464 1465 1465 1466 1466 1467 1468 1470 1470 1472 1473 1475 1476 1478 1480 1482 1483 1485 1486 1488 1490 1492 1494 1495 1497 1499 1500 1501 1502 1502 1501 1501 1502 1503 1504 1505 1506 1506 1506
1460 1460 1460 1460 1460 1461 1461 1462 1462 1463 1464 1465 1466 1467 1468 1470 1471 1473 1474 1476 1478 1479 1481 1483 1485 1486 1488 1490 1491 1493 1494 1496 1496 1497 1497 1496 1497 1498 1499 1500 1500 1501 1501